Regional Weather Roundup
Issued by NWS

Home | Current Version | Previous Version | Text Only | Print | Product List | Glossary Off
Versions: 1 2 3 4 5 6 7 8 9 10 11 12 13 14 15 16 17 18 19 20 21 22 23 24 25 26 27 28 29 30 31 32 33 34 35 36 37 38 39 40 41 42 43 44 45 46 47 48 49 50

000
ASUS43 KFSD 262210
RWRSD

WEATHER ROUNDUP FOR SOUTH DAKOTA
NATIONAL WEATHER SERVICE SIOUX FALLS SD
500 PM CDT MON SEP 26 2016

NOTE: "FAIR" INDICATES FEW OR NO CLOUDS BELOW 12,000 FEET WITH NO
SIGNIFICANT WEATHER AND/OR OBSTRUCTIONS TO VISIBILITY.


SDZ001>005-009-010-012>017-262300-
NORTHWEST AND NORTH CENTRAL SOUTH DAKOTA

CITY           SKY/WX    TMP DP  RH WIND       PRES   REMARKS
BUFFALO          N/A     70  40  33 NW20G28   30.13F
FAITH            N/A     72  41  32 NW13G24   30.15F
MOBRIDGE       SUNNY     72  33  24 NW16G25   30.08F
$$

SDZ012>016-024>037-041>051-057-063-072>074-262300-
SOUTHWEST AND SOUTH CENTRAL SOUTH DAKOTA

CITY           SKY/WX    TMP DP  RH WIND       PRES   REMARKS
RAPID CTY ARPT SUNNY     72  40  31 N23G30    30.21S
PIERRE         SUNNY     73  37  27 NW17G25   30.11F
CUSTER         SUNNY     65  39  38 W10       30.30S
ELLSWORTH AFB  SUNNY     72  39  30 N18G26    30.21S
PHILIP         SUNNY     76  39  26 NW20G33   30.13F
PINE RIDGE     SUNNY     75  41  29 NW9       30.21F
WINNER         FAIR      76  38  25 NW17G24   30.14F
$$

SDZ004>011-016>023-039-040-262300-
NORTHEAST SOUTH DAKOTA

CITY           SKY/WX    TMP DP  RH WIND       PRES   REMARKS
ABERDEEN       SUNNY     71  30  21 NW22G32   30.05F
WATERTOWN      SUNNY     66  33  29 NW17G28   30.03S
BROOKINGS      SUNNY     67  30  25 W21G30    30.02F
SISSETON         N/A     69  30  23 NW23G32   29.97S
$$

SDZ017-020-022-023-036>040-048>070-262300-
SOUTHEAST SOUTH DAKOTA

CITY           SKY/WX    TMP DP  RH WIND       PRES   REMARKS
SIOUX FALLS    MOSUNNY   72  36  26 NW17G29   30.04F
HURON          SUNNY     73  31  21 NW20G26   30.05F
CHAMBERLAIN    SUNNY     74  41  29 NW17G24   30.12S
MITCHELL       SUNNY     74  34  23 NW16G26   30.08F
YANKTON        SUNNY     72  39  30 W16G25    30.07F
$$

ABBREVIATIONS USED IN REMARKS
   TC - TEMPERATURE IN CELSIUS
  WCI - WIND CHILL INDEX
   HX - HEAT INDEX
  VSB - VISIBILITY




USA.gov is the U.S. government's official web portal to all federal, state and local government web resources and services.